Joplin, MO

8:02 PM CST on January 16, 2017 (GMT -0600)
Joplin Regional

Weather History for KJLN - October, 2013

Change the Weather History Date:

Tuesday, October 1, 2013

  Actual Average Record
Temperature  
Mean Temperature 75 °F 64 °F  
Max Temperature 85 °F 76 °F 94 °F (1953)
Min Temperature 65 °F 53 °F 32 °F (1985)
Degree Days  
Heating Degree Days 0 4  
Month to date heating degree days 0 4  
Since 1 July heating degree days 11 46  
Cooling Degree Days 10 3  
Month to date cooling degree days 10 3  
Year to date cooling degree days 1531 1645  
Growing Degree Days 23 (Base 50)    
Moisture  
Dew Point 64 °F    
Average Humidity 76    
Maximum Humidity 100    
Minimum Humidity 51    
Precipitation  
Precipitation 0.00 in 0.14 in 1.35 in (1986)
Month to date precipitation 0.14  
Year to date precipitation 35.46 36.06  
Sea Level Pressure  
Sea Level Pressure 29.93 in    
Wind  
Wind Speed 8 mph (South)    
Max Wind Speed 15 mph    
Max Gust Speed 33 mph    
Visibility 9 miles    
Events      
T = Trace of Precipitation, MM = Missing Value Source: NWS Daily Summary

Daily Weather History Graph

Daily Weather History Graph

Search for Another Location

Airport or City:

Trip Planner

Search our weather history database for the weather conditions in past years. The results will help you decide how hot, cold, wet, or windy it might be!

Date:

Astronomy

Oct. 01, 2013 Rise Set
Actual Time 7:13 AM CDT 7:00 PM CDT
Civil Twilight 6:47 AM CDT 7:26 PM CDT
Nautical Twilight 6:17 AM CDT 7:56 PM CDT
Astronomical Twilight 5:47 AM CDT 8:27 PM CDT
Moon 3:52 AM CDT (10/1) 5:01 PM CDT (10/1)
Length of Visible Light 12h 39m
Length of Day
11h 47m
Waning Crescent, 12% of the Moon is Illuminated
Oct 1
Waning Crescent
Oct 4
New
Oct 11
First Quarter
Oct 18
Full
Oct 26
Last Quarter

Hourly Weather History & Observations

Time (CDT) Temp. Heat Index Dew Point Humidity Pressure Visibility Wind Dir Wind Speed Gust Speed Precip Events Conditions
12:53 AM 66.9 °F - 63.0 °F 87% 29.87 in 10.0 mi South 8.1 mph - N/A   Clear
1:53 AM 66.0 °F - 63.0 °F 90% 29.88 in 10.0 mi SSE 6.9 mph - N/A   Clear
2:53 AM 64.9 °F - 63.0 °F 93% 29.88 in 10.0 mi SSE 8.1 mph - N/A   Clear
3:53 AM 64.9 °F - 63.0 °F 93% 29.88 in 9.0 mi SSE 6.9 mph - N/A   Clear
4:53 AM 64.9 °F - 64.0 °F 97% 29.89 in 8.0 mi SSE 6.9 mph - N/A   Clear
5:53 AM 64.9 °F - 64.0 °F 97% 29.91 in 8.0 mi SSE 4.6 mph - N/A   Clear
6:53 AM 64.9 °F - 64.0 °F 97% 29.93 in 7.0 mi SSE 6.9 mph - N/A   Clear
7:53 AM 66.9 °F - 64.9 °F 93% 29.95 in 6.0 mi SSE 9.2 mph - N/A   Clear
8:53 AM 70.0 °F - 66.9 °F 90% 29.96 in 7.0 mi South 10.4 mph - N/A   Clear
9:53 AM 73.9 °F - 68.0 °F 82% 29.97 in 9.0 mi South 10.4 mph - N/A   Clear
10:53 AM 77.0 °F - 66.9 °F 71% 29.98 in 10.0 mi SSW 9.2 mph - N/A   Partly Cloudy
11:53 AM 80.1 °F 81.7 °F 64.0 °F 58% 29.97 in 10.0 mi SSW 11.5 mph - N/A   Scattered Clouds
12:53 PM 81.0 °F 82.5 °F 64.0 °F 56% 29.96 in 10.0 mi South 8.1 mph - N/A   Scattered Clouds
1:53 PM 82.9 °F 84.4 °F 64.0 °F 53% 29.94 in 10.0 mi SSW 10.4 mph 18.4 mph N/A   Partly Cloudy
2:53 PM 82.9 °F 84.0 °F 63.0 °F 51% 29.93 in 10.0 mi Variable 4.6 mph - N/A   Partly Cloudy
3:53 PM 82.9 °F 84.0 °F 63.0 °F 51% 29.91 in 10.0 mi SSW 9.2 mph - N/A   Partly Cloudy
4:53 PM 82.9 °F 84.4 °F 64.0 °F 53% 29.91 in 10.0 mi South 9.2 mph - N/A   Partly Cloudy
5:53 PM 82.0 °F 83.4 °F 64.0 °F 54% 29.92 in 10.0 mi South 8.1 mph - N/A   Partly Cloudy
6:53 PM 79.0 °F - 64.0 °F 60% 29.93 in 10.0 mi SSE 4.6 mph - N/A   Clear
7:53 PM 73.9 °F - 64.9 °F 73% 29.94 in 10.0 mi Calm Calm - N/A   Clear
8:53 PM 72.0 °F - 64.9 °F 78% 29.95 in 10.0 mi Variable 4.6 mph - N/A   Scattered Clouds
9:53 PM 71.1 °F - 64.9 °F 81% 29.96 in 10.0 mi SSE 6.9 mph - N/A   Partly Cloudy
10:53 PM 73.0 °F - 66.0 °F 79% 29.96 in 10.0 mi South 9.2 mph - N/A   Clear
11:53 PM 72.0 °F - 66.0 °F 81% 29.96 in 10.0 mi South 8.1 mph - N/A   Clear